Flag for Canada Weather past 2 weeks in Timmins, Ontario, Canada

Now
5 °F

Partly sunny.


Feels Like: -11 °F
Forecast: -1 / 21 °F
Wind: 12 mph from South

Location: Timmins

Current Time: Mar 6, 2015 at 9:59:56 AM

Latest Report: Mar 6, 2015 at 9:00 AM


Visibility: 15 mi

Pressure: 30.05 "Hg

Humidity: 60%

Dew point: -6 °F

Location of TimminsLocation

Historic Weather in Timmins — Graph

°F

Timmins temperature yesterday

Maximum temperature yesterday: 12 °F (at 4:00 PM)
Minimum temperature yesterday: -22 °F (at 3:00 AM)
Average temperature yesterday: -3 °F

Past Weeks' High & Low Weather Summary

 TemperatureHumidityPressure
High25 °F (Feb 28, 2:00 PM)93% (Mar 3, 3:00 PM)30.45 "Hg (Mar 3, 3:00 PM)
Low-36 °F (Feb 20, 4:00 AM)33% (Feb 28, 2:00 PM)29.28 "Hg (Feb 24, 3:00 PM)
Average0 °F69%30.08 "Hg
* Reported Feb 19 8:00 AM — Mar 6 8:00 AM, Timmins, Weather by CustomWeather, © 2015

Note: Actual official high and low records may vary slightly from our data, if they occured in-between our weather recording intervals... More about our weather records

Advertising

Timmins weather history for previous 24 hours

 ConditionsComfort  
Time TempWeatherWind HumidityBarometerVisibility
8:00 AM
Fri, Mar 6
1 °FPartly sunny.13 mph71%30.07 "Hg15 mi
7:00 AM-2 °FBroken clouds.9 mph77%30.11 "Hg15 mi
6:00 AM-4 °FPassing clouds.8 mph77%30.13 "Hg15 mi
5:00 AM-4 °FPassing clouds.8 mph77%30.16 "Hg15 mi
4:00 AM-6 °FPassing clouds.8 mph84%30.18 "Hg15 mi
3:00 AM-4 °FClear.8 mph77%30.21 "Hg15 mi
2:00 AM-4 °FClear.7 mph84%30.22 "Hg15 mi
1:00 AM0 °FClear.6 mph71%30.24 "Hg15 mi
12:00 AM0 °FClear.7 mph78%30.26 "Hg15 mi
11:00 PM
Thu, Mar 5
1 °FClear.8 mph71%30.27 "Hg15 mi
10:00 PM1 °FClear.8 mph71%30.27 "Hg15 mi
9:00 PM5 °FClear.7 mph60%30.26 "Hg15 mi
8:00 PM5 °FPassing clouds.7 mph66%30.27 "Hg15 mi
7:00 PM7 °FPassing clouds.7 mph61%30.26 "Hg15 mi
6:00 PM10 °FPartly sunny.8 mph52%30.23 "Hg15 mi
5:00 PM12 °FPartly sunny.12 mph44%30.23 "Hg15 mi
4:00 PM12 °FPartly sunny.14 mph44%30.22 "Hg15 mi
3:00 PM10 °FPartly sunny.9 mph47%30.24 "Hg15 mi
2:00 PM10 °FPartly sunny.12 mph47%30.26 "Hg15 mi
1:00 PM9 °FScattered clouds.13 mph47%30.29 "Hg15 mi
12:00 PM5 °FPassing clouds.12 mph51%30.32 "Hg15 mi
11:00 AM3 °FSunny.9 mph55%30.32 "Hg15 mi
10:00 AM-4 °FSunny.8 mph65%30.34 "Hg15 mi
9:00 AM-11 °FSunny.6 mph76%30.33 "Hg15 mi
Weather by CustomWeather, © 2015

See weather overviewHow to use our weather pages